ITARNLAS2 Weather Reports


time (UTC)temp
C
wind
direction
speed
KPH
gust
KPH
rain 1hr
cm
rain 24hr
cm
rain mn
cm
humidity
%
barometer
mb
20260506134556 11 0 3.2 9.7 0.00 1.22 0.15 100 1012.7
20260506133054 11 0 1.6 4.8 0.00 1.22 0.15 100 1012.6
20260506131607 10 0 0.0 0.0 0.00 1.22 0.15 100 1012.9
20260506130057 11 0 0.0 3.2 0.00 1.22 0.13 100 1012.7
20260506124556 11 0 0.0 9.7 0.00 1.22 0.13 100 1012.6
20260506123055 10 238 3.2 8.0 0.00 1.22 0.13 100 1012.6
20260506121600 10 0 0.0 9.7 0.00 1.22 0.13 100 1012.7
20260506114556 10 55 3.2 11.3 0.00 1.22 0.13 100 1012.7
20260506113054 10 118 1.6 6.4 0.00 1.22 0.13 100 1012.9
20260506111557 8 0 1.6 4.8 0.00 1.22 0.13 100 1013.0
20260506110055 8 247 1.6 8.0 0.00 1.22 0.13 99 1013.0
20260506104601 8 128 0.0 4.8 0.00 1.22 0.13 98 1013.0
20260506103056 8 0 0.0 9.7 0.00 1.22 0.13 98 1012.9
20260506101557 9 49 1.6 8.0 0.00 1.22 0.13 98 1013.0
20260506100109 8 194 1.6 9.7 0.00 1.22 0.13 98 1012.9
20260506094555 8 56 1.6 11.3 0.00 1.22 0.13 98 1012.9
20260506093056 8 157 1.6 8.0 0.00 1.22 0.13 98 1012.7
20260506091556 8 210 1.6 8.0 0.00 1.22 0.13 98 1012.6
20260506090053 8 165 0.0 6.4 0.00 1.22 0.13 99 1012.7
20260506084602 7 0 1.6 9.7 0.00 1.22 0.13 99 1012.7
20260506083058 7 108 1.6 6.4 0.00 1.22 0.13 99 1012.5
20260506081555 7 206 1.6 4.8 0.00 1.19 0.10 99 1012.5
20260506073057 7 156 1.6 11.3 0.03 1.19 0.10 99 1012.3
20260506071559 7 86 1.6 9.7 0.08 1.19 0.10 100 1012.2
20260506061600 6 293 4.8 11.3 0.00 1.19 0.03 100 1011.7
20260506050104 6 0 0.0 9.7 0.00 1.22 0.00 100 1011.1
20260506044557 6 0 3.2 11.3 0.00 1.45 0.00 100 1011.1
20260506043056 6 236 3.2 8.0 0.00 1.45 0.00 100 1011.2
20260506041602 6 0 1.6 6.4 0.00 1.45 0.00 100 1011.2
20260506040110 6 159 3.2 8.0 0.00 1.45 0.00 100 1011.1
20260506034555 6 229 1.6 8.0 0.00 1.47 0.00 100 1011.1
20260506033056 6 179 3.2 9.7 0.00 1.47 0.00 100 1011.2
20260506031556 7 0 3.2 9.7 0.00 1.47 0.00 100 1011.0
20260506030107 7 53 3.2 11.3 0.00 1.47 0.00 100 1011.2
20260506024718 7 163 1.6 9.7 0.00 1.52 0.00 100 1011.2
20260506023054 7 0 1.6 9.7 0.00 1.52 0.00 100 1011.2
20260506021559 7 124 3.2 6.4 0.00 1.52 0.00 100 1011.3
20260506020055 7 227 1.6 11.3 0.00 1.52 0.00 100 1011.2
20260506014603 7 179 1.6 11.3 0.00 1.63 0.00 100 1011.1
20260506013056 7 0 1.6 11.3 0.00 1.63 0.00 100 1011.0
20260506011556 7 180 3.2 12.9 0.00 1.63 0.00 100 1011.2
20260506010105 7 201 3.2 12.9 0.00 1.63 0.00 100 1011.3
20260506004602 7 186 3.2 12.9 0.00 1.68 0.00 100 1011.3
20260506003058 7 192 4.8 11.3 0.00 1.68 0.00 100 1011.5
20260506001601 7 134 1.6 4.8 0.00 1.68 0.00 100 1011.6
20260506000059 7 155 3.2 12.9 0.00 1.68 0.00 100 1011.6
20260505234554 7 225 3.2 11.3 0.00 1.78 0.00 100 1011.9
20260505233116 7 216 1.6 6.4 0.00 1.78 0.00 100 1011.8
20260505231557 7 181 3.2 14.5 0.00 1.78 0.00 100 1012.0
20260505230058 7 120 1.6 9.7 0.00 1.78 0.00 100 1012.1
20260505224554 7 0 1.6 4.8 0.00 1.88 0.00 100 1012.1
20260505223100 7 57 1.6 6.4 0.00 1.88 0.00 100 1012.3
20260505221603 7 163 0.0 4.8 0.00 1.88 0.00 100 1012.5
20260505220059 7 157 0.0 4.8 0.00 1.88 0.00 100 1012.7
20260505214559 7 140 0.0 9.7 0.00 1.88 1.88 100 1012.5
20260505213102 7 168 0.0 3.2 0.00 1.88 1.88 100 1012.8
20260505211602 7 168 1.6 4.8 0.00 1.88 1.88 100 1013.0
20260505210103 7 0 0.0 6.4 0.00 1.88 1.88 100 1013.0
20260505204554 7 200 0.0 4.8 0.00 2.24 1.88 100 1013.2
20260505203059 7 225 1.6 8.0 0.00 2.24 1.88 100 1013.1
20260505201557 7 165 1.6 6.4 0.00 2.24 1.88 100 1012.9
20260505200056 7 209 1.6 4.8 0.00 2.24 1.88 100 1012.7
20260505194601 7 194 0.0 4.8 0.00 2.72 1.88 100 1012.5
20260505193125 7 0 0.0 4.8 0.03 2.72 1.88 100 1012.3
20260505191605 7 0 0.0 4.8 0.10 2.72 1.88 100 1012.2
20260505190056 7 140 1.6 4.8 0.23 2.72 1.88 100 1011.9
20260505184556 7 163 1.6 6.4 0.33 3.76 1.85 100 1012.1
20260505183056 7 177 0.0 8.0 0.46 3.73 1.83 100 1012.5
20260505181555 7 75 1.6 9.7 0.56 3.66 1.75 100 1012.7
20260505180058 7 186 3.2 8.0 0.58 3.53 1.63 100 1012.5
20260505174558 7 198 1.6 14.5 0.64 4.32 1.50 100 1012.4
20260505173059 7 128 3.2 16.1 0.51 4.14 1.35 100 1012.5
20260505171556 7 221 3.2 14.5 0.36 3.96 1.17 100 1012.4
20260505170057 7 128 4.8 16.1 0.23 3.84 1.02 100 1012.3
20260505164556 8 71 4.8 14.5 0.08 3.66 0.86 100 1012.2
20260505163059 8 156 4.8 22.5 0.03 3.63 0.84 100 1011.9
20260505161556 10 155 4.8 24.1 0.00 3.58 0.79 100 1012.0
20260505153140 13 0 0.0 4.8 0.00 3.58 0.79 100 1010.7
20260505151558 13 0 0.0 6.4 0.00 3.58 0.79 100 1011.2
20260505140106 13 0 0.0 1.6 0.00 3.58 0.79 100 1011.5